Location: Newport
(44.6370°N, 124.0520°W)
Time: 04:44:43
(UTC-08:00)

ISS - Visible Passes

Search period start: 24 January 2019 00:00
Search period end: 03 February 2019 00:00
Orbit: 404 x 410 km, 51.6° (Epoch: 24 January)

Date Brightness Start Highest point End Pass type
(mag) Time Alt. Az. Time Alt. Az. Time Alt. Az.
24 Jan -2.8 18:03:03 10° SSW 18:06:04 34° SE 18:08:26 14° E visible
24 Jan -1.6 19:39:23 10° W 19:41:09 26° WNW 19:41:09 26° WNW visible
25 Jan -3.6 18:47:51 10° WSW 18:51:07 64° NNW 18:52:01 42° NE visible
26 Jan -3.8 17:56:26 10° SW 17:59:43 78° SSE 18:02:49 11° ENE visible
26 Jan -1.7 19:33:34 10° WNW 19:35:32 24° NW 19:35:32 24° NW visible
27 Jan -2.7 18:41:52 10° W 18:44:59 37° NNW 18:46:17 25° NNE visible
28 Jan -3.3 17:50:13 10° WSW 17:53:28 52° NNW 17:56:43 10° NE visible
28 Jan -1.7 19:27:44 10° WNW 19:29:43 22° NNW 19:29:43 22° NNW visible
29 Jan -2.3 18:36:00 10° WNW 18:38:53 27° N 18:40:23 19° NNE visible
30 Jan -1.9 19:21:43 10° NW 19:23:46 22° NNW 19:23:46 22° NNW visible
31 Jan -2.1 18:30:03 10° WNW 18:32:48 23° N 18:34:25 17° NE visible
31 Jan -0.5 20:06:53 10° NW 20:07:08 11° NW 20:07:08 11° NW visible
01 Feb -2.2 19:15:26 10° NW 19:17:48 26° N 19:17:48 26° N visible
02 Feb -2.3 18:23:54 10° NW 18:26:41 24° N 18:28:29 16° NE visible
02 Feb -0.9 20:00:25 10° NW 20:01:12 16° NW 20:01:12 16° NW visible
